Wind_Speed
44 46 46 44 42 38 34 34 36 38 38 38 38 37 37 37 38 38 39 40 41 41 42 42 43 43 44 45 47 49 50 51 51 51 52 52 53 53 54 54 53 53 52 52 50 50 49 49 48 47 47 47 48 49 50 50 50 50 50 51 52 53 53 54 56 56 56 55 54 56 59 60 58 55 52 51 51 51 51 52 53 54 55 56 55
41 44 46 46 46 43 39 36 36 37 37 38 38 38 38 38 37 38 38 39 40 41 41 42 42 43 44 45 46 47 49 49 50 50 49 49 49 49 49 49 49 48 48 48 47 47 46 46 45 44 44 44 44 45 45 46 46 46 46 47 48 49 49 50 51 52 52 52 51 51 54 57 57 55 52 51 51 51 52 52 53 55 56 56 56
41 42 43 45 46 46 44 40 37 37 37 38 38 39 39 39 38 38 38 38 38 39 40 41 42 42 43 44 45 46 48 48 49 49 48 48 48 48 48 48 47 47 47 46 46 46 45 44 43 43 42 42 43 43 44 44 45 45 45 46 47 48 48 49 50 51 51 52 51 52 54 56 57 57 56 54 53 53 53 53 54 56 56 56 56
41 42 43 44 45 46 46 44 40 38 37 38 38 38 39 40 40 39 38 38 38 38 39 39 40 41 42 43 44 45 46 47 47 47 47 47 47 47 47 47 46 46 46 46 46 46 45 44 43 43 43 43 44 44 45 46 47 47 48 48 48 49 50 50 51 52 53 54 53 54 55 56 56 57 58 57 55 53 53 53 55 57 57 57 57
42 43 44 45 45 45 46 46 44 41 38 38 38 38 38 39 40 41 40 39 38 38 38 38 39 40 40 41 42 43 45 46 46 46 46 46 46 46 46 46 45 45 45 45 46 46 46 45 44 44 44 45 45 46 46 47 48 49 49 50 50 50 51 52 53 53 54 55 55 55 55 55 56 58 58 59 57 55 54 55 56 57 58 58 58
44 44 44 45 46 46 46 46 46 44 41 39 38 38 39 39 40 41 41 41 40 39 39 38 38 39 40 40 41 42 43 44 45 46 46 46 46 46 46 46 45 45 46 46 46 46 46 46 45 45 45 46 46 47 47 48 49 50 50 50 51 51 52 53 54 54 55 55 55 55 55 55 56 58 59 60 60 57 55 56 57 58 57 57 57
46 45 45 45 47 47 48 47 46 45 43 41 39 39 39 39 40 40 41 42 42 42 41 40 40 40 40 40 41 41 42 43 44 44 45 45 46 46 46 46 46 47 47 47 47 47 47 46 46 45 45 46 46 47 48 49 50 50 51 51 51 53 53 54 54 55 56 56 55 56 56 56 57 58 59 60 61 60 57 56 57 57 56 55 55
48 47 46 46 46 47 48 48 47 46 44 43 41 39 39 40 40 40 40 41 42 43 43 43 43 42 41 41 41 42 42 43 43 43 44 44 45 46 46 47 48 48 48 48 48 48 47 47 46 46 46 47 48 49 50 51 52 52 52 52 53 54 55 55 55 56 56 56 56 56 56 56 56 57 58 59 61 60 57 55 54 55 54 54 53
48 48 47 47 47 46 47 47 47 46 45 43 41 40 39 40 40 41 41 40 40 41 42 44 44 45 44 44 43 43 43 43 44 44 45 45 46 46 47 48 48 49 49 49 49 49 48 47 47 48 49 50 51 52 52 53 53 54 54 54 54 55 55 55 56 56 56 55 55 55 55 55 55 55 56 57 58 59 57 54 52 52 52 52 51
50 48 47 47 47 47 46 46 46 46 45 44 42 40 39 39 40 41 41 41 41 40 41 42 43 45 46 46 46 46 45 45 45 46 46 47 48 48 49 49 50 50 50 50 50 50 50 50 51 52 53 54 54 54 54 54 54 54 54 54 54 54 54 54 54 54 54 54 54 53 53 53 53 53 54 55 56 57 57 54 51 50 50 51 51
51 50 48 47 47 47 46 45 45 44 44 43 42 41 39 39 39 40 41 42 42 41 41 41 42 43 44 46 47 47 48 48 48 48 48 49 49 50 50 51 51 52 52 53 53 54 54 55 56 56 57 56 56 55 55 54 54 53 53 53 53 53 52 52 52 52 52 52 52 52 52 52 52 51 52 53 54 55 55 53 50 48 49 50 51
52 51 49 48 47 46 45 44 44 43 42 42 41 40 39 38 38 39 40 41 42 42 41 41 41 42 42 43 45 46 47 48 49 50 50 51 51 51 51 52 52 53 54 54 55 56 57 57 57 57 56 55 54 53 53 53 52 51 51 51 51 51 50 50 50 50 50 51 51 51 51 51 50 50 50 50 51 52 52 51 50 48 49 50 51
52 52 51 49 47 47 45 44 44 42 41 40 40 39 39 38 37 37 38 39 40 41 41 41 41 41 41 42 42 43 44 46 47 48 49 49 50 50 50 51 52 52 52 53 53 53 54 54 54 53 52 52 51 51 50 50 49 49 49 49 49 49 49 49 48 48 48 49 50 50 49 49 49 49 48 48 49 50 51 51 50 50 50 51 51
50 51 51 50 48 47 45 44 44 42 41 39 38 38 37 37 36 35 36 37 39 40 40 41 40 40 40 40 40 41 42 43 44 45 46 46 46 47 48 48 49 49 49 50 50 50 50 50 50 50 50 49 49 49 49 49 49 49 48 49 49 49 49 48 47 47 47 48 49 49 48 48 48 48 48 48 48 49 50 51 51 51 50 51 51
49 50 51 50 48 47 46 44 43 42 41 39 38 37 36 36 35 34 34 34 36 38 39 40 40 40 39 39 39 39 40 41 42 43 43 43 44 44 45 46 47 47 47 48 48 48 49 49 49 50 50 49 49 49 49 49 49 49 49 49 49 50 49 49 48 48 49 49 50 49 49 48 48 48 48 49 49 49 50 51 51 52 52 52 53
49 49 50 49 48 46 46 44 43 42 40 38 38 37 35 35 34 34 34 33 33 35 37 38 39 39 39 39 39 39 39 39 40 41 41 41 41 42 42 43 44 45 45 46 46 47 47 48 48 49 49 49 49 49 49 49 49 49 49 49 49 49 50 50 50 50 50 50 50 50 49 49 49 49 49 50 50 50 51 52 52 53 54 54 54
48 49 49 49 47 45 45 44 42 41 40 38 37 36 35 34 33 33 33 33 32 32 34 35 36 37 37 38 38 38 38 38 38 39 40 39 39 40 41 41 42 43 43 44 44 45 45 46 46 47 47 48 48 48 48 49 49 49 49 49 49 49 49 49 49 49 50 50 50 50 50 50 50 50 51 51 51 51 52 53 53 53 54 54 55
47 48 48 48 47 45 44 43 41 40 39 37 36 36 35 34 33 32 33 32 32 32 32 33 34 35 35 36 36 37 37 37 37 38 39 38 37 37 39 40 40 41 42 42 42 42 43 43 44 44 45 45 46 46 47 48 48 48 48 48 48 48 48 49 48 48 48 49 49 49 50 50 51 51 51 52 52 52 52 53 53 54 55 55 56
46 48 48 48 47 45 43 42 41 40 38 36 35 35 34 34 33 32 32 32 31 31 31 32 32 32 33 34 34 35 35 35 36 36 37 38 36 35 36 38 38 39 40 40 41 41 41 41 42 42 43 43 44 45 46 46 47 47 47 47 48 48 48 48 47 47 47 47 48 48 49 49 50 51 51 51 52 53 53 53 53 54 55 55 55
46 48 49 49 47 45 43 41 40 39 37 36 35 34 33 33 32 32 32 31 31 31 31 31 31 31 31 32 32 33 33 33 34 34 35 36 36 35 35 36 37 37 37 38 38 39 39 40 40 40 40 41 42 42 43 44 45 45 45 45 46 46 46 46 46 46 46 46 46 47 48 48 49 49 50 50 51 52 52 52 52 52 53 53 53
47 48 49 49 47 44 42 40 39 38 36 35 34 33 32 32 32 31 31 31 31 30 30 30 30 30 30 30 31 31 31 31 32 32 33 34 35 34 34 34 35 36 35 35 36 36 36 37 37 37 37 38 39 39 40 41 41 42 43 43 43 43 44 44 44 44 44 44 44 45 46 46 47 47 48 48 49 49 50 51 51 51 51 52 52
48 49 49 49 47 43 41 39 38 36 34 33 32 31 31 31 30 30 30 30 29 29 29 29 29 29 29 29 29 29 30 30 30 31 31 32 33 33 32 32 33 33 33 33 34 34 35 35 35 35 35 36 37 37 38 38 39 40 41 41 41 41 41 42 42 42 42 42 43 44 44 45 45 46 47 47 48 48 49 49 50 51 51 51 51
50 50 50 49 46 42 39 37 36 34 33 32 31 30 30 30 29 29 28 28 28 28 28 28 28 27 27 27 27 27 27 28 28 29 30 31 31 31 31 30 30 30 31 32 32 33 33 33 33 33 34 34 35 36 36 36 36 37 38 38 38 39 39 39 39 40 41 42 42 43 43 44 45 45 46 47 47 47 47 48 48 49 50 50 50
51 50 49 47 44 41 38 35 34 32 31 30 29 29 28 28 27 27 26 26 26 26 27 27 26 25 25 25 25 24 25 25 26 27 28 29 29 30 29 28 27 27 28 30 30 31 31 31 32 32 32 33 33 34 33 33 34 35 35 35 36 37 37 38 39 40 41 41 41 41 42 42 43 44 44 45 46 46 46 45 44 45 47 49 49
51 49 47 44 41 38 36 34 32 30 29 28 27 27 27 26 25 25 24 24 24 24 25 25 24 23 23 23 22 22 22 23 24 25 26 27 28 28 27 26 25 25 26 27 28 29 29 29 30 30 30 31 32 32 32 33 33 34 34 34 35 36 37 37 38 39 39 40 40 41 41 42 42 43 43 44 44 44 44 44 44 44 45 47 48
49 47 44 40 37 35 33 31 30 28 27 26 26 25 24 24 23 23 22 22 22 23 23 23 22 22 21 21 20 20 21 22 23 24 25 26 26 26 25 24 24 24 25 26 26 27 27 28 28 29 29 30 31 31 32 32 32 33 34 34 35 35 36 36 37 37 38 38 39 40 41 41 42 43 43 42 41 41 42 44 45 44 44 44 46
47 44 40 36 34 33 31 29 27 26 25 24 24 23 22 22 21 21 21 21 21 21 21 21 20 20 20 20 19 19 20 21 22 23 24 25 25 25 24 24 24 24 25 25 26 26 27 27 28 29 29 30 31 31 32 33 33 34 34 34 34 35 36 36 36 37 37 38 39 40 40 41 42 43 43 42 42 41 42 43 45 45 44 44 44
43 39 34 32 32 31 28 26 25 24 23 22 22 21 20 20 20 20 19 20 20 20 19 19 19 19 19 19 18 19 20 21 21 22 22 23 23 23 23 23 24 24 24 25 25 26 27 28 29 29 30 30 31 31 32 33 33 34 34 34 35 35 36 36 37 37 38 39 39 40 40 41 42 42 43 43 43 42 42 43 44 44 44 44 45
37 33 31 30 29 28 25 24 23 22 21 20 20 19 18 18 18 18 18 19 19 18 18 18 18 18 18 17 18 19 20 20 20 20 21 21 22 22 22 23 23 23 24 24 25 27 28 28 29 29 29 30 30 31 32 33 33 34 34 35 35 36 36 37 37 38 38 39 39 39 40 41 42 42 42 43 43 43 43 43 43 43 43 44 45
32 30 28 27 26 24 23 22 21 20 19 18 18 18 17 17 17 17 17 18 18 17 17 18 17 16 16 17 18 19 19 19 19 20 21 21 21 21 21 22 22 22 23 25 26 27 27 28 28 29 29 30 31 31 33 33 34 35 35 35 36 36 36 37 37 38 38 38 39 39 40 40 41 41 41 41 41 41 42 41 41 41 42 43 43
29 27 26 24 23 22 21 20 19 18 17 16 16 16 16 16 16 16 17 17 17 17 17 17 16 15 16 17 18 18 18 18 19 20 20 21 21 20 21 22 22 22 24 26 27 28 28 28 29 29 29 30 31 32 32 33 34 34 35 35 35 36 36 36 36 36 37 37 37 37 38 38 38 38 39 39 39 39 40 40 40 40 41 42 43
26 24 23 22 20 19 19 18 16 16 15 15 15 15 15 15 15 16 16 17 16 16 16 16 15 15 16 17 17 17 17 18 18 19 21 22 21 21 21 23 23 23 25 27 28 28 28 28 29 29 29 29 29 30 31 31 32 33 33 34 34 34 34 34 34 35 35 35 35 35 35 35 36 36 36 37 37 38 38 39 40 40 40 41 42
23 21 21 20 19 17 17 15 15 15 14 14 14 14 15 15 15 16 16 16 16 16 15 15 15 15 15 16 16 17 17 17 18 20 21 22 21 21 22 24 24 25 26 26 27 27 27 27 27 28 29 29 29 30 30 30 31 31 32 32 33 32 31 31 32 33 33 33 33 33 33 33 34 34 35 35 36 36 37 38 38 39 39 40 40
21 20 19 18 16 15 15 14 14 14 14 14 14 14 15 15 15 15 16 16 16 16 15 15 15 15 15 15 16 16 17 17 18 20 22 22 21 21 23 24 24 25 25 25 25 26 26 26 27 28 29 29 29 29 29 29 29 30 30 30 31 30 29 29 31 31 31 31 32 32 32 32 32 33 33 34 34 35 35 36 37 38 39 40 40
19 17 17 16 15 14 14 14 14 14 14 14 14 14 14 14 15 15 15 15 16 16 15 15 15 15 15 15 16 17 17 18 19 20 22 21 20 21 23 23 22 22 23 24 25 25 26 27 27 27 28 28 27 28 28 28 28 28 28 29 29 29 29 29 30 29 30 31 31 30 31 31 31 31 32 33 34 34 35 36 37 38 38 39 39
17 16 15 15 14 14 14 14 14 13 13 14 14 14 14 14 15 15 15 15 15 16 15 15 15 16 16 16 16 17 18 19 19 20 21 20 19 20 22 21 21 21 22 23 24 25 25 26 26 26 26 26 26 27 27 27 27 27 28 28 28 28 29 29 29 29 29 30 29 29 30 31 30 31 32 33 33 34 35 35 36 36 37 37 37
17 16 15 15 14 14 14 14 14 14 14 14 14 14 14 15 15 15 15 16 16 16 16 15 15 15 16 16 17 18 18 19 19 19 20 19 19 20 20 20 21 22 22 22 23 24 25 25 25 25 25 25 25 26 26 27 27 27 27 28 28 27 27 28 27 28 28 28 28 28 29 29 29 30 31 32 32 33 33 33 34 34 35 35 35
17 16 16 15 15 15 14 14 14 14 14 14 15 15 15 15 15 16 16 17 17 17 17 17 16 16 16 16 17 18 18 19 19 19 19 19 19 19 20 20 21 22 23 23 23 23 24 25 24 25 25 25 25 25 26 26 26 26 26 26 26 26 26 26 26 27 27 27 27 27 28 28 28 29 30 30 31 31 31 31 32 32 32 32 32
18 17 17 16 16 15 15 15 15 15 14 15 15 15 16 16 16 16 17 17 18 18 18 18 18 18 17 17 18 18 19 19 19 19 19 19 19 19 20 21 22 22 23 24 24 24 25 26 25 25 25 25 25 25 25 25 25 25 25 25 25 25 25 25 25 25 25 25 25 25 26 27 27 28 29 29 29 29 29 29 29 29 29 29 30
20 19 18 17 17 16 16 16 16 15 15 15 15 16 16 16 17 17 18 18 19 19 19 19 19 19 18 18 19 19 19 19 19 19 19 19 19 20 20 21 22 23 24 24 25 25 26 26 26 26 26 25 25 25 25 25 24 24 24 24 24 24 23 23 23 23 23 24 24 24 25 25 26 26 27 26 26 26 26 26 26 26 26 27 28
22 21 20 19 18 17 17 17 17 16 16 16 16 17 17 17 18 18 19 19 20 20 20 20 20 20 19 19 19 19 19 19 19 19 19 20 20 20 21 22 22 23 24 24 25 25 26 26 26 26 26 25 25 25 25 24 24 24 24 24 23 23 22 22 21 21 22 22 22 23 23 24 24 24 24 23 23 23 23 23 23 24 24 24 25
22 21 21 20 19 18 18 18 17 17 17 17 17 18 18 18 19 19 20 20 21 21 21 21 21 21 20 20 20 20 20 20 20 20 20 20 21 21 21 22 22 23 24 24 24 25 25 25 26 25 25 25 25 25 24 24 23 23 23 23 23 22 21 20 20 20 20 21 21 21 21 22 21 21 21 21 20 20 20 20 21 21 21 21 21
22 22 21 21 20 20 19 19 18 18 18 18 18 19 19 20 20 20 21 21 22 22 22 22 22 22 21 20 20 20 20 20 20 21 21 21 21 21 22 22 22 23 24 24 24 24 24 24 24 24 24 24 24 24 24 24 23 23 23 22 22 21 20 19 19 19 19 19 19 19 19 19 19 18 18 18 18 18 18 18 18 18 18 18 18
23 22 22 22 22 21 21 20 20 20 20 20 20 20 20 21 21 21 21 22 22 23 23 23 23 22 22 21 21 21 21 21 21 21 22 22 22 22 22 22 22 23 23 23 23 23 23 23 23 23 23 23 23 23 23 23 23 22 22 21 21 20 19 18 18 18 18 18 18 17 17 17 16 16 15 15 15 15 15 15 15 15 15 15 15
24 23 23 22 22 22 22 22 22 22 22 22 22 22 22 22 22 22 22 22 22 23 23 23 23 23 23 22 22 22 22 22 22 22 22 23 23 23 23 23 23 23 23 22 22 23 23 23 23 22 22 22 22 22 23 22 22 21 20 20 20 19 17 17 16 16 16 16 15 15 15 14 14 13 13 13 12 12 12 11 11 11 11 12 12
26 25 24 23 23 23 23 23 23 23 23 23 23 23 23 23 23 23 23 23 23 23 23 24 24 24 24 24 23 23 23 23 23 23 23 23 23 23 23 23 23 23 23 22 22 22 22 22 22 21 21 21 21 21 21 21 20 20 19 19 18 17 16 15 15 14 14 14 13 13 12 11 11 11 10 9 9 8 8 8 8 9 10 11 12
28 27 26 25 25 24 24 24 24 24 24 24 24 24 24 24 24 24 23 23 24 24 24 24 25 25 25 25 24 24 24 24 24 24 24 24 24 24 24 24 24 24 23 23 22 22 22 22 21 21 21 20 20 20 20 19 19 18 18 17 16 15 14 14 13 12 12 11 11 10 9 9 8 7 6 6 6 5 6 7 8 9 10 12 13
29 28 28 27 26 26 25 25 24 24 24 25 25 24 24 24 24 24 24 24 25 25 25 25 25 25 25 25 25 25 24 24 24 24 24 24 24 24 24 24 25 25 24 24 23 22 22 21 20 20 20 20 19 19 19 18 17 16 16 15 15 13 13 12 11 10 10 9 8 8 7 6 5 4 3 3 4 4 5 7 8 10 12 14 16
30 30 29 29 28 27 27 26 26 25 25 25 25 24 24 24 24 25 25 25 25 26 26 26 26 26 26 26 25 25 25 25 24 24 24 24 24 24 24 24 25 25 24 24 23 23 22 21 20 19 19 19 19 18 17 16 15 15 14 14 13 12 11 10 9 8 8 7 6 5 4 3 3 2 2 3 3 4 6 8 10 12 15 16 18
31 31 30 30 29 29 28 28 27 27 26 26 26 25 25 25 25 25 25 26 26 26 26 26 26 26 26 26 26 25 25 25 25 24 24 24 24 24 24 24 24 24 24 24 23 22 21 20 19 19 18 18 17 17 16 15 14 13 13 12 11 10 9 8 8 7 6 5 5 4 4 3 2 2 2 3 4 6 8 10 13 15 16 17 18
31 31 31 31 30 30 30 30 29 29 28 28 27 27 26 26 26 26 26 27 27 27 27 27 27 27 26 26 26 26 25 25 25 25 24 24 24 23 23 23 23 23 23 23 23 22 21 20 19 18 17 17 16 15 14 13 13 12 12 11 10 9 8 7 7 6 6 5 5 4 3 2 2 2 2 4 6 8 10 13 14 15 16 17 18
Wind_Direction
289 288 288 288 288 285 279 274 272 274 275 275 275 273 271 269 266 262 259 257 256 255 254 252 252 252 252 251 252 252 252 251 250 249 248 248 248 248 249 250 251 252 253 253 253 253 254 254 254 254 254 254 254 254 254 255 255 254 254 255 256 256 256 257 258 259 260 260 261 262 264 265 265 263 260 258 258 259 260 261 261 262 262 263 265
290 288 287 286 286 286 284 278 273 271 271 271 271 272 272 270 268 266 262 259 256 254 253 252 251 250 250 249 249 250 251 251 251 251 251 251 250 250 250 251 251 252 252 253 252 252 252 252 253 252 252 252 252 252 253 253 254 254 254 254 254 255 255 256 257 258 259 260 259 260 262 264 265 265 263 260 259 259 260 261 261 262 263 264 265
294 290 288 287 286 285 285 282 277 272 269 268 267 267 267 268 268 267 264 261 258 256 253 252 251 250 249 248 247 247 248 250 251 251 252 252 252 252 251 251 251 251 251 251 251 250 250 249 250 250 250 250 251 251 252 253 254 255 254 254 255 256 256 257 258 259 259 260 260 260 260 262 264 265 265 263 261 260 261 261 262 263 264 266 267
298 294 290 288 286 285 284 284 281 276 271 268 266 264 263 264 264 264 263 262 259 257 254 252 251 249 249 248 247 247 246 247 248 249 250 251 251 251 251 250 250 250 249 248 248 248 248 248 248 249 250 250 251 252 253 254 255 256 256 257 257 257 258 258 258 259 259 260 260 260 260 262 262 263 264 264 264 263 262 263 263 264 265 266 266
302 298 295 291 288 285 284 283 282 280 275 270 267 265 263 262 261 260 260 259 258 256 254 252 251 250 249 248 247 247 246 246 246 246 246 247 247 247 247 247 247 247 247 246 247 247 248 248 248 249 250 251 252 253 254 255 256 257 258 258 258 259 259 259 259 259 259 259 259 259 260 261 262 262 263 264 265 265 265 264 264 265 265 266 267
302 300 297 294 290 287 285 283 282 280 278 274 269 266 264 262 261 259 258 257 256 255 254 252 250 249 248 247 246 246 245 245 244 244 243 243 243 243 244 244 244 245 245 246 247 248 249 250 250 251 252 253 254 255 256 256 257 258 258 259 259 259 259 259 259 259 259 259 259 259 259 260 261 263 264 265 266 266 266 266 266 266 267 268 269
301 299 298 295 292 289 286 284 282 280 279 276 272 267 264 262 261 260 258 256 255 253 252 251 250 248 247 245 244 243 243 243 243 243 242 242 243 243 243 244 244 245 245 246 247 248 249 250 251 252 253 254 255 256 256 257 258 258 259 259 259 259 259 259 259 259 259 259 259 259 259 260 261 262 264 266 267 267 266 267 268 269 270 271 271
300 299 297 295 292 289 286 284 283 281 279 277 273 269 265 262 261 260 259 257 255 254 252 250 249 248 247 245 244 242 242 241 242 242 242 243 243 244 244 245 245 246 246 246 247 248 249 249 250 252 254 256 257 258 258 258 258 258 258 258 259 259 259 258 258 258 258 258 258 259 259 260 261 262 263 265 267 268 268 269 270 271 270 270 269
301 299 298 296 293 289 286 283 282 281 280 278 274 270 266 263 261 260 259 258 257 255 253 251 249 248 247 246 246 245 244 243 242 242 243 243 244 244 245 245 246 246 246 246 247 247 248 250 253 256 259 260 260 260 259 259 259 259 258 258 258 258 258 258 257 257 257 258 258 259 259 260 261 263 264 265 267 268 269 269 269 269 268 268 267
304 301 299 297 295 291 287 283 281 280 280 278 275 272 267 263 260 259 259 258 258 256 255 253 252 250 248 247 246 246 246 246 246 245 245 245 246 246 247 247 248 248 249 250 250 251 253 256 259 261 262 262 261 260 260 260 260 259 259 258 258 258 258 257 257 257 258 258 259 259 260 261 262 263 264 265 266 266 267 267 267 267 267 266 265
309 305 301 299 297 293 289 284 280 279 279 277 275 272 268 264 260 257 257 257 257 257 256 255 254 253 252 250 249 247 247 246 247 247 247 247 247 248 249 249 250 251 252 254 255 257 259 261 262 262 262 261 260 260 259 259 259 258 258 258 257 257 257 257 258 258 258 259 259 260 260 261 262 262 263 264 264 265 266 266 266 266 266 265 265
313 310 306 302 300 296 292 286 282 279 278 276 274 272 270 266 262 258 256 255 256 256 256 256 255 254 253 253 252 251 250 250 249 249 249 249 249 250 250 251 251 252 254 255 257 258 259 261 261 260 259 258 257 257 257 257 257 257 257 257 257 257 257 257 258 258 259 259 260 260 261 261 261 261 262 263 263 264 265 265 265 265 265 265 264
316 313 310 306 302 299 295 290 285 281 279 276 274 272 270 268 265 261 257 255 254 255 255 255 255 255 255 254 254 253 253 253 252 252 252 252 252 253 253 253 254 254 255 256 257 257 258 258 258 257 256 256 256 256 256 256 256 256 256 257 257 257 258 258 258 259 259 260 260 260 261 261 261 261 262 262 263 263 264 264 264 264 264 264 265
315 314 312 309 305 301 297 293 289 284 281 277 274 271 270 268 266 263 259 256 254 254 254 254 254 254 254 254 254 254 254 254 254 254 254 254 254 255 255 255 255 256 256 257 257 258 258 258 258 258 257 257 257 257 257 256 256 256 256 256 257 257 257 257 258 258 258 259 260 260 260 261 261 261 261 262 263 263 264 265 265 265 264 264 264
313 313 312 309 306 303 298 295 292 287 283 279 275 272 269 268 267 264 262 258 255 253 253 254 254 254 254 254 254 255 255 255 255 255 255 255 255 256 256 256 257 256 257 257 257 258 258 258 259 259 259 258 258 258 258 257 257 257 257 257 257 256 256 257 257 257 257 258 259 259 259 260 260 260 261 261 261 262 262 263 263 263 262 262 262
312 313 312 310 307 303 299 295 292 289 285 280 276 273 270 268 267 266 264 261 257 254 252 252 253 253 254 254 254 255 255 256 256 256 256 256 256 256 256 256 257 257 257 257 257 257 257 257 258 258 258 258 258 257 257 257 256 257 257 257 257 257 257 257 257 257 257 257 257 258 258 258 259 259 259 259 259 260 260 260 260 261 261 261 262
312 313 312 311 308 303 299 296 292 289 285 280 277 274 271 269 267 266 265 263 260 257 253 252 251 251 252 253 253 254 255 255 256 257 257 257 256 257 257 257 257 257 257 257 257 257 257 257 257 257 257 258 258 257 257 256 256 256 256 256 257 257 257 257 257 257 257 257 257 257 257 257 257 258 258 258 259 259 259 259 260 260 261 262 263
311 312 312 312 309 303 299 296 292 289 284 279 276 273 272 270 268 267 266 264 263 260 257 254 251 250 251 251 251 252 253 254 255 256 257 257 256 256 257 257 257 257 257 257 257 256 256 256 257 257 258 258 258 258 257 257 256 256 256 256 256 256 257 256 256 256 256 256 256 257 257 257 257 258 258 259 259 259 259 260 261 261 262 263 264
311 312 313 312 310 304 299 296 293 289 284 279 276 273 271 270 269 268 267 265 264 262 260 257 254 252 251 250 250 250 251 252 254 255 256 257 256 257 258 258 258 257 257 257 257 257 256 256 255 255 256 256 257 257 257 256 256 256 255 255 256 255 256 256 256 255 255 255 256 256 257 258 258 259 259 259 260 260 260 261 261 262 263 264 264
311 312 313 312 310 304 299 295 292 289 283 278 275 273 272 270 269 268 267 266 265 263 261 259 257 255 253 251 250 250 250 251 252 253 255 256 257 258 258 259 259 259 259 258 258 258 257 256 255 255 254 254 254 254 255 255 255 256 255 256 256 256 256 256 256 256 255 256 256 257 257 258 259 260 261 261 261 261 262 262 262 262 263 264 264
311 312 312 312 309 304 299 295 292 288 283 278 275 274 272 270 269 268 267 265 264 263 262 261 259 257 255 253 252 251 251 251 252 253 254 255 256 257 257 257 258 259 260 260 259 259 258 257 257 256 255 255 254 254 254 254 255 255 255 256 256 256 257 257 257 257 257 258 258 258 259 259 260 260 261 261 262 262 263 263 263 263 264 264 264
310 311 311 311 308 303 297 294 292 288 283 278 275 274 272 270 269 267 266 265 264 263 262 260 259 258 257 255 254 254 254 254 254 255 255 255 255 256 255 255 256 258 259 259 259 259 259 259 258 257 257 256 256 255 255 255 256 256 257 257 258 258 259 260 260 260 259 259 259 259 259 259 259 260 260 260 260 261 262 263 264 264 265 265 265
309 310 311 309 306 301 296 294 292 288 283 278 276 275 273 271 269 266 264 263 263 262 261 260 259 258 258 257 256 255 255 256 256 257 257 256 256 256 256 256 256 257 258 259 259 259 259 259 259 258 258 258 258 258 258 258 259 259 259 260 260 260 261 261 260 260 260 259 260 260 260 260 260 260 260 260 260 260 260 261 263 264 265 266 266
310 311 310 308 304 299 296 294 292 288 283 279 276 275 274 271 268 265 263 262 261 260 260 259 258 257 257 257 256 255 255 256 256 257 257 257 257 258 258 258 257 257 258 258 259 259 259 260 260 259 259 260 260 260 260 260 260 260 260 260 260 260 260 260 260 260 260 261 261 260 260 260 261 261 261 261 261 261 261 261 261 262 264 265 265
310 310 308 305 300 297 295 293 291 288 284 281 278 276 274 271 267 264 262 260 260 259 259 258 257 256 255 256 256 255 255 255 255 255 256 256 257 258 259 259 258 257 257 257 257 257 258 259 260 260 260 260 260 260 260 260 260 260 260 259 259 259 260 260 261 261 261 261 262 261 260 260 260 261 261 262 263 264 265 265 264 263 264 266 267
309 308 305 301 297 295 294 293 290 287 285 282 279 277 274 270 266 263 260 258 258 257 257 256 255 255 254 254 254 253 252 253 253 253 254 256 257 258 259 259 258 257 257 257 257 258 259 259 260 260 260 261 261 261 262 262 262 262 262 262 262 262 262 262 263 264 264 264 265 265 265 265 264 264 265 266 266 267 267 268 268 267 267 268 270
308 305 302 298 295 294 294 292 289 287 284 282 279 277 274 269 266 262 258 256 255 255 254 254 253 252 252 252 251 250 249 250 251 252 254 255 257 258 259 259 259 258 258 259 260 261 261 261 261 261 261 261 262 263 264 264 264 265 265 266 266 267 267 267 267 267 267 268 268 268 269 270 270 270 270 270 269 269 269 270 271 271 271 271 271
305 302 299 296 295 294 293 290 288 285 283 280 277 275 272 268 264 261 258 255 253 252 252 251 250 250 250 250 250 250 249 250 251 252 253 254 256 257 257 258 259 259 260 260 261 261 261 261 261 262 263 264 265 265 266 266 266 266 267 267 267 267 267 268 268 268 268 268 269 270 270 270 271 272 272 272 272 271 271 271 271 273 273 273 273
302 300 299 296 295 294 291 289 287 284 280 277 274 272 269 265 261 258 256 255 253 252 251 250 249 249 250 250 250 250 251 253 255 255 255 255 256 256 257 258 259 260 262 262 261 261 261 262 263 264 265 265 266 267 267 267 268 268 268 268 268 268 268 268 268 268 268 269 269 269 269 270 270 271 271 272 272 273 272 272 273 273 273 273 274
303 301 300 297 294 292 291 289 286 282 277 274 271 269 267 263 260 257 255 255 253 252 251 250 249 249 249 249 249 251 253 255 256 257 258 258 258 259 260 261 262 264 265 265 264 264 265 266 267 267 267 267 267 267 267 268 268 268 268 268 268 268 268 268 268 269 269 269 269 269 269 270 270 271 271 272 272 273 274 274 274 274 275 275 275
304 303 301 298 295 293 291 289 284 280 275 271 268 267 264 262 259 257 255 254 253 252 250 249 248 247 247 248 250 251 254 256 257 259 261 262 262 263 265 267 268 270 270 270 270 271 272 273 273 273 273 273 273 272 271 271 271 270 270 269 269 269 269 269 269 269 269 269 269 269 270 270 271 272 272 273 273 274 275 275 276 276 276 277 277
306 304 301 298 296 294 292 288 283 278 273 269 267 265 263 260 258 257 255 253 251 250 250 249 247 245 246 250 252 254 256 258 261 264 265 267 270 273 275 276 276 276 275 276 277 279 279 278 278 277 276 275 274 274 273 273 272 272 272 272 270 270 270 271 271 270 269 270 270 271 271 271 272 273 274 275 275 276 276 277 277 277 277 277 277
307 304 301 299 297 295 290 285 280 276 272 269 266 263 262 260 256 255 255 254 252 250 248 248 248 246 246 249 252 255 257 259 263 266 268 271 275 278 278 278 278 278 278 279 280 280 280 280 280 280 279 278 276 274 273 273 272 272 272 272 272 271 271 270 270 270 270 271 272 272 272 273 274 274 275 276 276 277 277 278 278 278 278 279 278
308 305 302 300 297 293 288 283 279 275 271 268 265 262 261 259 255 253 252 253 254 254 252 252 252 251 251 252 254 257 259 260 262 265 268 272 275 276 275 276 277 278 279 279 279 279 280 280 280 280 279 279 277 276 274 272 271 271 271 271 271 272 271 269 268 270 271 271 271 272 273 274 274 275 276 276 277 277 278 279 280 281 281 282 282
309 306 303 300 296 291 286 283 279 276 272 269 265 261 259 257 255 253 251 250 251 253 253 254 256 257 258 258 259 261 262 264 265 266 269 272 274 274 274 275 277 277 278 278 279 280 281 281 281 280 279 278 277 276 275 273 272 272 271 271 272 272 272 271 271 271 272 272 272 273 274 275 275 276 277 278 279 280 280 281 282 283 283 283 284
312 308 303 299 295 291 287 284 281 277 273 269 265 261 259 257 255 255 254 253 252 251 250 250 252 256 258 260 260 262 263 265 266 267 270 272 272 273 275 276 276 275 275 276 278 280 281 281 281 280 279 278 276 275 275 274 273 273 272 272 273 272 272 272 272 272 272 272 273 274 274 276 277 278 279 279 280 281 282 283 283 284 284 285 286
314 310 305 300 296 292 288 284 282 279 274 271 267 263 260 258 257 256 256 257 258 258 257 254 252 253 256 259 262 263 264 265 267 269 271 273 273 274 276 277 277 278 278 278 279 279 280 280 280 279 278 278 276 275 274 273 273 273 273 273 273 272 272 272 271 271 271 273 274 275 276 277 278 279 280 281 282 282 283 284 285 286 286 287 288
315 312 307 302 297 293 288 285 283 279 276 274 270 267 264 262 260 260 259 259 260 262 263 264 262 260 259 261 264 266 268 269 270 271 273 274 275 277 279 280 281 282 283 282 282 281 280 280 280 279 278 278 277 275 274 273 273 273 273 273 272 271 271 270 270 271 272 273 275 276 277 279 280 281 281 283 284 285 286 286 287 287 288 289 290
314 311 307 302 297 293 288 285 283 280 278 275 272 270 268 266 264 263 263 263 264 265 266 267 267 266 266 267 267 269 271 273 275 276 277 278 280 281 282 283 284 284 285 285 285 284 282 282 280 279 279 278 277 275 274 274 273 274 274 273 272 271 270 270 270 272 274 275 277 278 279 281 282 283 284 285 286 287 287 288 288 290 291 292 294
312 309 305 301 297 293 288 285 283 281 279 276 272 270 269 267 267 267 266 266 267 268 268 268 268 268 270 270 270 270 272 273 275 277 279 280 281 281 282 283 283 284 285 285 285 284 284 283 281 280 279 278 277 276 274 273 274 274 274 273 272 271 271 272 273 275 276 278 280 281 282 283 284 284 285 286 286 287 288 289 291 293 294 296 298
311 309 306 302 298 294 290 287 284 282 280 277 274 272 271 270 269 269 268 268 269 268 268 268 268 269 271 272 273 274 274 275 276 277 278 279 280 281 282 283 284 285 285 286 286 286 285 284 282 280 279 278 277 276 274 273 273 274 274 273 273 272 273 274 275 276 278 280 282 283 284 284 285 285 285 286 286 287 289 291 293 296 298 300 302
311 309 306 303 299 295 291 288 285 283 281 278 276 274 273 272 271 270 269 269 268 268 268 268 268 270 271 272 274 276 276 277 278 278 279 280 281 281 282 283 284 285 286 287 287 286 285 284 282 280 278 277 277 275 273 272 272 272 273 273 273 273 274 275 276 278 280 281 283 283 283 283 284 284 285 286 287 289 292 294 297 299 301 303 306
310 308 305 303 299 296 292 288 285 283 280 278 276 275 273 272 271 271 270 269 268 267 267 267 268 271 272 272 274 275 276 277 278 279 279 280 280 280 281 282 283 284 286 287 288 288 287 285 283 281 279 277 276 275 273 271 270 270 271 272 273 273 274 275 277 279 281 282 282 282 282 282 283 283 284 287 289 291 294 297 299 302 305 308 310
308 306 303 301 298 295 292 289 286 284 282 280 279 277 275 273 272 270 270 269 268 267 267 267 269 271 273 274 275 276 276 277 278 278 278 278 278 277 278 279 281 283 284 286 288 288 288 287 285 282 280 277 276 274 272 270 269 269 270 271 271 272 272 274 276 279 280 281 281 281 281 282 283 284 285 288 291 294 297 300 303 306 309 312 316
308 304 301 299 296 294 292 289 287 285 284 282 281 279 277 275 273 271 270 269 268 267 268 268 270 272 273 275 276 276 277 277 277 277 277 276 276 276 276 276 278 280 283 286 288 289 289 288 286 284 281 278 275 273 270 268 268 269 269 269 270 270 272 274 275 277 278 278 278 279 279 280 282 284 286 289 292 296 300 303 306 310 314 318 322
309 306 302 299 296 293 291 288 287 285 284 282 281 280 278 275 274 272 271 269 268 267 267 268 269 271 273 274 275 276 276 277 276 276 276 276 275 275 274 274 276 278 281 285 288 289 289 287 285 284 282 279 275 272 269 267 267 267 267 268 268 269 270 272 273 274 275 275 274 274 275 277 279 282 285 289 292 297 301 305 311 317 320 323 325
306 305 303 300 297 294 291 289 287 285 283 282 281 279 278 276 274 272 270 269 268 267 266 267 268 270 272 273 274 275 275 276 276 276 276 276 276 275 274 273 274 276 279 283 287 288 288 286 284 282 281 278 274 270 267 265 265 265 265 266 266 267 268 270 271 271 270 269 268 269 270 272 275 278 281 286 292 299 306 312 317 321 322 323 323
302 300 299 298 296 295 292 290 288 286 284 282 281 279 278 276 274 272 270 269 267 267 267 267 268 270 271 273 274 275 275 276 276 276 277 277 277 276 275 274 273 274 277 281 284 287 287 284 282 280 279 277 273 269 265 263 263 263 263 263 263 264 265 265 265 264 263 261 261 262 263 263 264 266 271 282 295 306 314 317 319 320 321 321 321
299 297 296 294 293 292 291 289 288 286 284 282 280 279 277 275 273 272 270 269 268 267 267 268 269 270 271 272 273 274 275 275 276 276 277 277 277 277 276 275 274 274 276 279 282 285 285 283 280 279 278 275 272 267 263 261 260 260 260 260 259 259 259 258 255 253 252 250 248 246 242 237 240 249 266 290 305 313 317 318 319 319 319 320 321
299 296 294 291 289 288 287 286 285 284 283 281 280 279 276 275 273 271 270 269 269 268 268 268 269 270 270 271 272 273 273 274 275 275 276 276 276 276 276 275 274 274 276 277 280 282 283 281 278 277 276 274 270 265 261 258 257 256 256 256 255 253 250 247 242 238 233 225 217 211 207 209 222 243 276 300 310 316 318 319 320 321 321 322 324
300 297 293 290 288 286 284 283 282 281 280 280 279 278 276 275 273 272 270 270 269 269 269 269 269 269 270 270 271 271 272 272 273 273 274 274 275 275 275 274 274 274 275 276 278 280 280 278 276 275 274 272 267 261 256 253 252 252 251 250 247 243 237 230 222 212 201 194 190 189 192 201 219 246 285 306 315 319 321 322 322 324 326 327 328
Height
2949 2947 2946 2945 2944 2943 2943 2943 2942 2941 2940 2939 2938 2938 2938 2937 2937 2937 2937 2937 2937 2938 2939 2940 2941 2942 2943 2944 2945 2946 2947 2948 2949 2950 2951 2952 2954 2955 2956 2958 2960 2961 2963 2964 2966 2967 2968 2969 2971 2973 2974 2975 2976 2977 2977 2979 2980 2982 2983 2984 2984 2986 2987 2987 2988 2990 2991 2992 2995 2994 2990 2991 2995 2999 3003 3004 3005 3006 3006 3006 3007 3006 3007 3007 3009
2946 2943 2941 2940 2938 2938 2937 2937 2937 2936 2935 2934 2934 2933 2933 2932 2932 2932 2932 2932 2932 2933 2933 2934 2935 2936 2937 2938 2940 2941 2942 2943 2944 2945 2946 2947 2948 2950 2951 2952 2954 2956 2957 2958 2960 2961 2962 2964 2965 2966 2968 2969 2970 2971 2972 2973 2974 2975 2977 2978 2978 2979 2981 2982 2982 2983 2984 2985 2988 2988 2986 2985 2987 2990 2994 2996 2998 2999 2999 2999 2999 2999 3000 3000 3002
2940 2939 2937 2935 2933 2932 2931 2931 2931 2931 2930 2930 2929 2929 2928 2927 2927 2927 2927 2927 2927 2927 2928 2928 2929 2930 2931 2932 2933 2935 2936 2938 2939 2940 2941 2942 2943 2944 2946 2947 2948 2950 2951 2952 2953 2955 2956 2958 2959 2960 2962 2963 2964 2965 2966 2967 2968 2969 2971 2972 2973 2974 2975 2976 2976 2977 2978 2979 2981 2982 2981 2980 2981 2982 2984 2987 2990 2992 2992 2993 2992 2992 2993 2994 2995
2935 2933 2932 2930 2929 2927 2926 2925 2925 2924 2924 2924 2924 2923 2923 2922 2922 2922 2921 2922 2922 2922 2922 2923 2923 2924 2925 2926 2927 2928 2929 2931 2932 2933 2934 2936 2937 2938 2940 2941 2942 2944 2945 2946 2947 2949 2950 2952 2953 2955 2956 2957 2958 2959 2960 2961 2962 2963 2965 2966 2967 2968 2968 2969 2970 2971 2971 2972 2974 2975 2974 2975 2976 2976 2977 2978 2980 2983 2985 2986 2985 2985 2986 2987 2987
2930 2928 2926 2925 2923 2922 2920 2919 2918 2918 2918 2918 2918 2917 2917 2917 2917 2916 2916 2916 2917 2917 2917 2917 2918 2918 2919 2920 2921 2922 2923 2925 2926 2927 2928 2929 2930 2932 2933 2935 2936 2938 2939 2940 2941 2943 2944 2946 2948 2949 2950 2951 2952 2953 2954 2955 2956 2957 2958 2959 2961 2961 2962 2962 2963 2964 2964 2965 2967 2968 2968 2968 2969 2969 2970 2970 2972 2975 2977 2977 2977 2978 2978 2979 2980
2925 2923 2921 2919 2918 2916 2915 2914 2912 2912 2911 2911 2911 2911 2911 2911 2911 2911 2911 2911 2911 2911 2912 2912 2912 2913 2914 2915 2916 2917 2918 2919 2920 2921 2922 2923 2924 2926 2927 2929 2930 2932 2933 2934 2936 2937 2939 2940 2942 2943 2944 2945 2946 2947 2948 2949 2950 2951 2952 2953 2954 2954 2954 2955 2956 2956 2957 2958 2960 2960 2961 2962 2961 2961 2962 2963 2964 2967 2968 2968 2968 2969 2970 2971 2972
2920 2918 2916 2914 2912 2910 2909 2908 2906 2905 2905 2904 2904 2904 2904 2904 2905 2905 2905 2905 2905 2906 2906 2906 2907 2908 2908 2909 2910 2911 2913 2914 2915 2916 2916 2917 2919 2920 2921 2923 2924 2926 2927 2929 2930 2932 2933 2934 2936 2937 2938 2939 2940 2941 2942 2942 2943 2944 2945 2946 2947 2947 2947 2948 2949 2949 2950 2951 2952 2953 2954 2955 2955 2955 2955 2955 2955 2958 2960 2960 2960 2961 2963 2964 2964
2914 2912 2910 2908 2906 2904 2903 2902 2900 2899 2898 2898 2897 2897 2897 2898 2898 2898 2898 2899 2899 2900 2900 2901 2901 2902 2903 2904 2905 2906 2907 2908 2909 2910 2911 2912 2913 2915 2916 2917 2919 2920 2921 2923 2924 2925 2927 2928 2930 2931 2932 2933 2934 2935 2935 2936 2937 2938 2939 2940 2939 2939 2940 2941 2941 2942 2942 2943 2945 2946 2946 2947 2948 2948 2948 2948 2948 2949 2951 2953 2953 2953 2955 2955 2955
2909 2907 2904 2901 2899 2898 2896 2895 2894 2893 2892 2891 2891 2890 2890 2891 2891 2891 2891 2892 2892 2893 2894 2894 2895 2896 2897 2898 2899 2900 2901 2902 2903 2904 2905 2906 2907 2909 2910 2911 2913 2914 2915 2916 2918 2919 2921 2922 2924 2924 2925 2926 2927 2928 2928 2929 2929 2930 2932 2932 2932 2932 2932 2933 2934 2934 2935 2936 2937 2938 2938 2939 2941 2941 2940 2941 2941 2942 2943 2945 2945 2945 2946 2947 2947
2903 2901 2899 2896 2893 2891 2890 2888 2887 2886 2885 2884 2884 2884 2884 2884 2884 2884 2884 2885 2885 2886 2887 2888 2888 2889 2891 2892 2893 2894 2895 2896 2897 2898 2899 2900 2901 2903 2904 2905 2906 2907 2909 2910 2911 2912 2914 2915 2917 2917 2918 2919 2920 2920 2921 2921 2922 2923 2924 2924 2925 2925 2925 2926 2926 2927 2928 2928 2930 2930 2930 2932 2933 2933 2933 2934 2934 2934 2935 2936 2938 2938 2938 2938 2939
2896 2894 2893 2890 2887 2885 2884 2882 2881 2879 2878 2877 2877 2876 2876 2877 2877 2877 2877 2878 2878 2879 2880 2881 2882 2883 2884 2885 2886 2887 2888 2889 2890 2891 2892 2894 2895 2896 2898 2899 2900 2901 2902 2903 2904 2905 2906 2908 2909 2910 2910 2911 2912 2913 2914 2914 2915 2915 2916 2917 2917 2917 2918 2918 2919 2920 2920 2921 2922 2923 2923 2925 2926 2926 2927 2927 2927 2927 2928 2929 2930 2930 2929 2930 2931
2891 2888 2887 2884 2882 2879 2877 2876 2874 2873 2871 2870 2870 2869 2869 2870 2870 2870 2871 2871 2871 2872 2873 2874 2874 2875 2876 2877 2878 2879 2880 2882 2883 2884 2885 2887 2888 2889 2890 2891 2892 2893 2895 2896 2897 2897 2898 2900 2901 2902 2903 2904 2904 2905 2906 2907 2907 2908 2908 2909 2910 2911 2911 2911 2912 2913 2913 2914 2915 2915 2916 2918 2919 2919 2920 2920 2920 2921 2921 2922 2923 2923 2922 2922 2923
2886 2883 2880 2878 2876 2873 2871 2869 2868 2867 2865 2864 2863 2862 2862 2863 2863 2863 2864 2864 2865 2865 2866 2867 2868 2868 2869 2870 2871 2872 2873 2874 2875 2877 2878 2880 2881 2882 2882 2883 2885 2886 2887 2888 2889 2890 2891 2892 2893 2895 2896 2896 2897 2898 2899 2899 2900 2900 2901 2901 2903 2904 2904 2904 2905 2906 2906 2906 2907 2908 2910 2910 2911 2913 2913 2913 2913 2914 2914 2915 2915 2915 2915 2915 2916
2882 2878 2875 2872 2870 2867 2865 2863 2861 2860 2859 2858 2856 2856 2856 2856 2856 2856 2857 2858 2858 2859 2859 2860 2861 2862 2863 2864 2865 2865 2866 2867 2868 2870 2872 2873 2874 2875 2875 2876 2877 2879 2880 2881 2881 2882 2883 2884 2885 2887 2888 2889 2889 2890 2891 2892 2892 2893 2893 2894 2895 2896 2897 2897 2898 2899 2899 2899 2900 2902 2903 2903 2904 2906 2906 2906 2907 2907 2907 2907 2907 2907 2908 2908 2908
2877 2874 2870 2867 2864 2861 2859 2857 2855 2854 2853 2851 2850 2850 2849 2849 2849 2850 2850 2851 2852 2852 2853 2854 2855 2855 2856 2857 2858 2859 2860 2861 2862 2863 2865 2867 2868 2868 2869 2870 2871 2872 2873 2874 2875 2876 2877 2877 2878 2879 2881 2882 2882 2883 2884 2884 2885 2885 2886 2887 2888 2889 2889 2890 2891 2891 2892 2893 2893 2895 2896 2896 2897 2898 2898 2899 2900 2900 2900 2900 2899 2899 2899 2900 2900
2871 2869 2865 2862 2859 2855 2853 2851 2850 2848 2846 2845 2844 2844 2843 2843 2843 2843 2843 2845 2846 2846 2847 2848 2849 2849 2850 2851 2852 2852 2853 2854 2855 2857 2858 2860 2861 2862 2862 2863 2864 2866 2866 2867 2868 2869 2870 2871 2872 2873 2874 2875 2875 2876 2877 2877 2878 2878 2879 2880 2881 2881 2882 2884 2884 2885 2885 2886 2886 2888 2889 2889 2890 2890 2891 2891 2892 2892 2892 2892 2892 2892 2892 2892 2892
2866 2863 2860 2857 2854 2850 2847 2845 2843 2842 2841 2840 2839 2838 2837 2837 2837 2837 2837 2838 2839 2840 2841 2842 2843 2844 2844 2845 2846 2846 2847 2848 2849 2850 2852 2854 2855 2855 2856 2857 2858 2859 2860 2861 2862 2863 2864 2865 2865 2866 2867 2868 2868 2869 2870 2870 2871 2872 2872 2873 2874 2874 2875 2876 2877 2878 2878 2879 2880 2881 2881 2882 2882 2882 2883 2884 2884 2885 2884 2884 2886 2885 2885 2886 2886
2860 2857 2854 2851 2848 2845 2842 2839 2837 2836 2835 2834 2833 2833 2832 2831 2831 2831 2831 2832 2833 2834 2835 2836 2837 2838 2839 2840 2840 2841 2842 2842 2843 2844 2845 2847 2849 2849 2849 2851 2852 2852 2853 2854 2855 2856 2857 2858 2859 2860 2861 2861 2862 2863 2863 2863 2864 2865 2866 2866 2867 2868 2868 2869 2870 2871 2872 2872 2873 2873 2874 2875 2875 2875 2876 2876 2877 2878 2878 2878 2879 2878 2879 2880 2880
2855 2851 2848 2845 2842 2839 2836 2833 2831 2830 2829 2829 2828 2827 2827 2826 2826 2826 2826 2826 2827 2828 2829 2830 2831 2832 2833 2834 2835 2836 2836 2837 2838 2839 2839 2841 2843 2843 2844 2845 2845 2846 2847 2848 2849 2849 2850 2851 2852 2853 2854 2854 2855 2856 2856 2856 2858 2859 2859 2859 2860 2861 2861 2862 2864 2865 2865 2865 2866 2867 2867 2867 2868 2869 2870 2870 2870 2870 2871 2872 2872 2871 2872 2874 2873
2850 2846 2842 2839 2836 2833 2830 2828 2826 2824 2823 2823 2822 2822 2821 2821 2821 2820 2820 2821 2821 2822 2823 2824 2825 2826 2828 2829 2829 2830 2831 2832 2833 2834 2834 2835 2837 2838 2838 2839 2839 2840 2840 2841 2842 2843 2844 2844 2845 2846 2847 2848 2849 2849 2850 2850 2851 2852 2852 2853 2854 2854 2855 2856 2857 2858 2858 2859 2860 2860 2860 2861 2861 2862 2863 2863 2863 2863 2863 2865 2865 2865 2865 2866 2866
2845 2841 2837 2833 2830 2827 2824 2822 2820 2819 2818 2817 2817 2817 2816 2816 2815 2815 2815 2815 2816 2817 2817 2818 2819 2820 2822 2823 2824 2825 2826 2827 2827 2829 2829 2830 2831 2832 2833 2833 2833 2834 2835 2835 2836 2837 2837 2838 2839 2841 2841 2841 2842 2843 2843 2844 2844 2845 2846 2847 2847 2848 2848 2849 2850 2851 2852 2853 2853 2854 2854 2854 2855 2856 2856 2856 2857 2856 2856 2857 2858 2858 2858 2859 2859
2838 2835 2831 2828 2824 2821 2818 2816 2815 2813 2812 2811 2811 2812 2811 2810 2810 2810 2810 2811 2811 2812 2812 2813 2814 2815 2816 2817 2818 2819 2820 2821 2822 2823 2824 2825 2826 2827 2828 2828 2829 2829 2830 2830 2831 2831 2832 2833 2834 2835 2835 2835 2836 2837 2837 2838 2839 2839 2840 2841 2841 2842 2843 2843 2844 2845 2846 2846 2847 2847 2847 2848 2848 2849 2849 2850 2850 2851 2850 2850 2851 2851 2851 2852 2852
2832 2829 2825 2821 2818 2815 2813 2811 2809 2808 2807 2806 2806 2806 2806 2806 2806 2806 2806 2806 2807 2807 2808 2808 2809 2810 2811 2812 2813 2815 2815 2816 2817 2818 2819 2820 2820 2821 2822 2823 2824 2825 2825 2826 2826 2827 2827 2828 2829 2830 2830 2830 2831 2831 2832 2833 2833 2834 2835 2835 2836 2837 2837 2838 2838 2838 2839 2840 2840 2840 2841 2841 2842 2842 2843 2843 2843 2844 2845 2844 2844 2845 2845 2845 2845
2825 2822 2818 2815 2812 2809 2807 2805 2804 2803 2802 2801 2801 2801 2801 2801 2801 2801 2801 2802 2802 2803 2803 2804 2805 2806 2807 2808 2809 2810 2811 2812 2813 2813 2814 2815 2816 2816 2817 2819 2820 2821 2821 2821 2822 2822 2823 2823 2824 2825 2825 2825 2826 2826 2827 2828 2828 2829 2829 2830 2830 2831 2831 2831 2832 2832 2833 2833 2834 2835 2835 2835 2835 2836 2836 2836 2836 2837 2838 2839 2839 2839 2838 2838 2838
2819 2816 2812 2809 2806 2803 2801 2800 2798 2798 2797 2797 2796 2796 2796 2796 2796 2796 2797 2797 2798 2798 2799 2800 2801 2802 2803 2804 2805 2806 2807 2808 2808 2809 2810 2810 2811 2812 2813 2814 2815 2816 2817 2817 2817 2818 2819 2819 2820 2820 2821 2821 2821 2822 2822 2822 2823 2824 2824 2825 2825 2825 2826 2826 2826 2827 2827 2828 2828 2828 2829 2829 2830 2830 2830 2830 2831 2831 2832 2832 2833 2833 2832 2831 2831
2812 2809 2806 2803 2800 2798 2796 2795 2794 2793 2792 2792 2792 2792 2791 2792 2792 2792 2793 2793 2794 2794 2795 2796 2797 2798 2799 2800 2801 2802 2803 2804 2804 2805 2806 2806 2807 2808 2809 2810 2811 2812 2812 2812 2813 2814 2814 2815 2815 2815 2816 2816 2816 2816 2817 2817 2818 2818 2819 2819 2819 2820 2820 2821 2821 2821 2822 2822 2822 2822 2822 2822 2823 2823 2824 2825 2826 2826 2825 2824 2824 2825 2825 2825 2825
2805 2802 2799 2797 2794 2793 2791 2790 2789 2788 2788 2787 2787 2787 2787 2788 2788 2788 2789 2789 2790 2791 2792 2793 2794 2795 2795 2796 2797 2799 2799 2800 2801 2801 2802 2803 2803 2804 2805 2806 2807 2807 2808 2809 2809 2810 2810 2810 2810 2811 2811 2811 2812 2812 2812 2812 2812 2813 2813 2813 2814 2814 2814 2814 2815 2815 2815 2815 2815 2815 2815 2815 2815 2816 2817 2818 2818 2818 2818 2818 2817 2817 2818 2818 2818
2798 2796 2794 2791 2789 2788 2787 2786 2785 2785 2784 2783 2783 2783 2784 2784 2784 2785 2785 2786 2786 2787 2788 2790 2790 2791 2792 2793 2794 2795 2795 2796 2797 2798 2799 2800 2800 2801 2802 2803 2803 2804 2804 2805 2805 2805 2805 2806 2806 2806 2806 2807 2807 2807 2807 2807 2807 2807 2808 2808 2808 2808 2808 2808 2809 2809 2809 2809 2809 2809 2810 2809 2809 2809 2810 2810 2810 2811 2811 2811 2811 2811 2811 2810 2810
2792 2790 2788 2787 2785 2784 2783 2782 2782 2781 2780 2780 2780 2780 2780 2781 2781 2782 2782 2782 2783 2784 2785 2786 2787 2788 2789 2789 2790 2791 2791 2793 2794 2795 2795 2796 2797 2798 2799 2799 2799 2800 2800 2801 2801 2801 2801 2801 2802 2802 2802 2803 2803 2802 2802 2802 2802 2802 2802 2802 2802 2803 2803 2803 2803 2803 2803 2804 2804 2804 2804 2804 2804 2804 2804 2804 2804 2804 2804 2804 2804 2804 2804 2803 2803
2787 2785 2784 2782 2781 2780 2779 2779 2778 2778 2777 2777 2777 2777 2777 2778 2778 2779 2779 2780 2781 2782 2782 2783 2784 2785 2786 2786 2787 2787 2788 2789 2790 2791 2791 2792 2793 2794 2795 2795 2796 2796 2796 2796 2796 2796 2796 2797 2797 2798 2798 2798 2798 2798 2797 2797 2797 2797 2797 2797 2797 2797 2797 2797 2797 2798 2798 2798 2798 2798 2798 2798 2798 2798 2798 2798 2798 2797 2797 2797 2798 2797 2797 2796 2796
2782 2781 2780 2778 2777 2777 2776 2775 2775 2775 2774 2774 2774 2774 2775 2775 2775 2776 2777 2777 2778 2779 2780 2780 2781 2782 2783 2783 2783 2784 2785 2786 2786 2787 2788 2788 2789 2790 2791 2791 2791 2792 2791 2791 2790 2791 2792 2792 2792 2792 2792 2792 2792 2792 2792 2792 2792 2791 2791 2792 2792 2792 2792 2792 2792 2792 2792 2792 2792 2792 2792 2792 2792 2792 2792 2792 2792 2791 2791 2791 2791 2791 2790 2790 2789
2779 2777 2776 2775 2774 2774 2773 2773 2772 2772 2772 2772 2772 2772 2772 2772 2773 2773 2774 2775 2776 2776 2777 2778 2779 2780 2780 2780 2781 2781 2782 2783 2783 2784 2784 2784 2785 2786 2786 2786 2786 2786 2786 2785 2785 2785 2786 2786 2786 2786 2786 2787 2786 2786 2786 2786 2786 2786 2785 2785 2786 2786 2786 2787 2787 2786 2786 2786 2786 2787 2787 2786 2786 2786 2786 2786 2785 2785 2785 2784 2784 2784 2784 2783 2782
2776 2775 2773 2772 2772 2771 2771 2770 2770 2770 2770 2770 2770 2770 2770 2770 2771 2771 2771 2772 2773 2774 2775 2775 2776 2777 2777 2778 2778 2779 2779 2780 2780 2780 2780 2780 2781 2782 2781 2781 2781 2781 2781 2781 2781 2781 2780 2781 2781 2781 2781 2781 2781 2781 2781 2781 2781 2780 2780 2780 2779 2780 2782 2782 2781 2780 2780 2781 2781 2781 2781 2781 2781 2781 2780 2780 2780 2779 2779 2778 2778 2777 2777 2776 2776
2774 2772 2771 2770 2770 2769 2769 2768 2768 2768 2768 2768 2768 2768 2768 2768 2769 2769 2769 2770 2770 2771 2772 2773 2773 2774 2774 2775 2775 2775 2776 2777 2777 2777 2776 2777 2778 2778 2777 2777 2777 2777 2777 2777 2777 2777 2777 2777 2777 2776 2776 2776 2776 2776 2776 2776 2776 2776 2776 2775 2775 2775 2777 2777 2776 2776 2776 2776 2776 2776 2776 2776 2776 2775 2775 2774 2774 2774 2773 2772 2772 2771 2770 2770 2769
2772 2771 2769 2768 2768 2767 2767 2767 2766 2766 2766 2766 2766 2766 2766 2766 2767 2767 2767 2768 2768 2769 2769 2770 2770 2771 2771 2772 2772 2772 2773 2773 2774 2773 2773 2774 2775 2774 2774 2774 2774 2774 2774 2774 2773 2773 2773 2773 2773 2773 2772 2772 2772 2771 2771 2771 2771 2771 2771 2771 2771 2771 2771 2771 2771 2771 2771 2771 2771 2771 2771 2770 2770 2770 2769 2769 2769 2768 2768 2767 2766 2765 2764 2764 2763
2771 2769 2768 2767 2767 2766 2765 2765 2765 2765 2764 2764 2764 2764 2764 2764 2765 2765 2765 2766 2766 2767 2767 2768 2768 2768 2769 2769 2769 2770 2770 2770 2770 2770 2771 2771 2772 2771 2771 2771 2771 2771 2771 2771 2771 2770 2770 2769 2769 2769 2768 2768 2768 2767 2767 2767 2767 2767 2766 2766 2766 2766 2766 2766 2766 2767 2766 2765 2766 2766 2766 2765 2765 2765 2764 2764 2764 2763 2762 2762 2761 2760 2759 2758 2757
2770 2768 2767 2766 2765 2765 2764 2763 2763 2763 2763 2762 2762 2762 2762 2762 2763 2763 2763 2763 2764 2764 2765 2765 2766 2766 2767 2767 2767 2767 2767 2767 2767 2768 2768 2768 2768 2768 2768 2768 2768 2767 2768 2768 2768 2767 2766 2766 2765 2765 2764 2764 2764 2763 2763 2763 2763 2763 2762 2762 2762 2762 2762 2762 2762 2762 2761 2761 2762 2762 2761 2761 2761 2760 2759 2759 2758 2758 2757 2757 2755 2754 2753 2753 2752
2769 2768 2767 2765 2764 2763 2763 2762 2761 2761 2761 2760 2760 2760 2760 2760 2760 2761 2761 2761 2761 2761 2762 2762 2762 2763 2764 2764 2764 2764 2764 2764 2764 2764 2764 2764 2764 2764 2764 2764 2763 2763 2763 2763 2763 2763 2762 2762 2762 2761 2760 2760 2760 2759 2759 2759 2759 2759 2758 2758 2758 2758 2758 2758 2758 2758 2757 2758 2758 2757 2757 2756 2756 2755 2754 2754 2753 2752 2752 2751 2750 2749 2748 2747 2746
2768 2767 2765 2764 2763 2762 2761 2760 2760 2759 2759 2759 2758 2758 2758 2758 2758 2758 2758 2758 2758 2758 2759 2759 2759 2759 2760 2760 2760 2760 2760 2760 2760 2760 2760 2760 2760 2760 2760 2759 2759 2759 2759 2759 2758 2758 2758 2757 2757 2757 2756 2756 2756 2755 2755 2755 2755 2755 2754 2754 2754 2754 2754 2754 2754 2754 2753 2753 2753 2753 2752 2752 2751 2750 2750 2749 2748 2748 2747 2746 2745 2745 2744 2743 2742
2767 2765 2764 2763 2762 2761 2760 2759 2758 2757 2757 2756 2756 2756 2756 2756 2756 2756 2756 2756 2756 2756 2756 2756 2756 2756 2757 2757 2757 2757 2757 2756 2756 2756 2756 2756 2756 2756 2756 2756 2756 2755 2755 2755 2754 2754 2753 2753 2753 2752 2752 2752 2752 2751 2751 2751 2751 2750 2750 2750 2750 2750 2750 2750 2750 2750 2749 2749 2749 2748 2748 2747 2747 2746 2745 2745 2744 2743 2743 2742 2741 2740 2740 2739 2737
2765 2764 2762 2761 2760 2759 2758 2757 2756 2755 2755 2754 2754 2753 2753 2753 2753 2753 2753 2753 2753 2753 2753 2753 2753 2753 2754 2753 2753 2753 2753 2753 2753 2753 2753 2753 2753 2753 2753 2752 2752 2752 2751 2751 2750 2750 2749 2749 2748 2748 2748 2748 2747 2747 2747 2747 2746 2746 2746 2746 2746 2746 2746 2746 2746 2745 2745 2745 2744 2744 2744 2743 2742 2742 2742 2741 2741 2740 2739 2738 2738 2737 2736 2735 2733
2763 2762 2760 2759 2758 2757 2756 2755 2754 2753 2752 2752 2751 2751 2751 2750 2750 2750 2750 2750 2750 2750 2750 2750 2750 2750 2751 2750 2750 2749 2749 2749 2749 2749 2749 2749 2749 2749 2749 2749 2748 2748 2747 2747 2747 2746 2745 2745 2744 2744 2744 2743 2743 2743 2743 2743 2743 2743 2742 2742 2743 2742 2742 2742 2742 2741 2741 2741 2741 2740 2740 2739 2739 2738 2738 2738 2737 2737 2736 2735 2734 2734 2732 2731 2730
2761 2759 2758 2757 2755 2754 2753 2752 2751 2751 2750 2749 2749 2748 2748 2748 2747 2747 2747 2747 2747 2747 2746 2746 2747 2747 2747 2747 2746 2746 2746 2746 2745 2745 2745 2745 2745 2745 2745 2745 2745 2744 2744 2743 2743 2742 2742 2741 2740 2740 2740 2740 2739 2739 2739 2739 2739 2739 2739 2739 2739 2739 2739 2738 2738 2738 2738 2737 2737 2737 2736 2736 2736 2735 2735 2734 2734 2734 2733 2732 2731 2731 2729 2728 2727
2758 2757 2755 2754 2753 2751 2750 2749 2749 2748 2747 2747 2746 2745 2745 2745 2744 2744 2744 2744 2744 2743 2743 2743 2743 2743 2743 2743 2743 2742 2742 2742 2742 2742 2741 2741 2741 2742 2741 2741 2741 2741 2741 2740 2739 2739 2738 2737 2737 2737 2736 2736 2736 2735 2735 2735 2735 2735 2736 2736 2736 2735 2735 2735 2735 2734 2734 2734 2734 2733 2733 2733 2733 2732 2732 2732 2731 2731 2730 2730 2729 2728 2727 2726 2725
2755 2754 2752 2751 2750 2748 2747 2746 2745 2744 2744 2743 2743 2742 2741 2741 2741 2740 2740 2740 2740 2740 2740 2739 2739 2739 2739 2739 2739 2738 2738 2738 2738 2738 2738 2738 2738 2738 2738 2738 2738 2737 2737 2737 2736 2735 2734 2734 2733 2733 2733 2732 2732 2732 2732 2732 2732 2732 2732 2732 2732 2732 2732 2732 2732 2731 2731 2731 2731 2731 2730 2730 2730 2730 2730 2729 2729 2729 2728 2727 2727 2726 2725 2724 2723
2752 2750 2749 2747 2746 2745 2744 2743 2742 2741 2740 2739 2739 2738 2737 2737 2737 2736 2736 2736 2736 2736 2736 2736 2735 2735 2735 2735 2735 2735 2734 2734 2734 2734 2734 2734 2734 2734 2734 2734 2733 2733 2733 2733 2732 2732 2731 2731 2730 2729 2729 2729 2728 2728 2728 2728 2729 2729 2729 2729 2729 2729 2729 2729 2729 2728 2728 2728 2728 2728 2728 2728 2728 2728 2728 2727 2727 2727 2726 2725 2725 2724 2723 2722 2721
2748 2746 2745 2743 2742 2741 2740 2739 2738 2737 2736 2735 2735 2734 2733 2733 2732 2732 2732 2732 2732 2732 2732 2732 2731 2731 2731 2731 2731 2731 2730 2730 2730 2730 2730 2730 2730 2729 2729 2729 2729 2729 2729 2729 2729 2728 2728 2727 2727 2726 2726 2725 2725 2725 2725 2725 2725 2726 2726 2726 2726 2726 2726 2726 2725 2726 2726 2726 2726 2726 2726 2726 2726 2726 2726 2725 2725 2725 2724 2724 2723 2723 2722 2721 2720
2743 2742 2740 2739 2738 2736 2735 2734 2733 2732 2732 2731 2730 2730 2729 2728 2728 2728 2727 2727 2727 2727 2727 2727 2727 2727 2727 2727 2727 2727 2726 2726 2726 2726 2726 2726 2725 2725 2725 2725 2725 2725 2725 2725 2725 2725 2724 2724 2723 2723 2722 2722 2721 2721 2722 2722 2722 2722 2723 2723 2723 2723 2723 2723 2723 2723 2723 2723 2724 2724 2724 2724 2724 2724 2724 2724 2724 2723 2723 2722 2722 2721 2720 2719 2718
2739 2737 2735 2734 2733 2732 2731 2730 2729 2728 2727 2726 2726 2725 2725 2724 2724 2723 2723 2723 2723 2723 2723 2723 2723 2723 2723 2723 2723 2723 2722 2722 2722 2722 2722 2722 2722 2721 2721 2721 2721 2721 2721 2721 2721 2721 2721 2720 2720 2720 2719 2719 2718 2718 2719 2719 2719 2719 2720 2720 2720 2720 2720 2720 2720 2721 2721 2721 2722 2722 2722 2722 2722 2722 2722 2722 2722 2722 2722 2721 2720 2719 2718 2717 2716
2733 2732 2730 2729 2728 2726 2726 2725 2724 2723 2722 2722 2721 2721 2720 2720 2719 2719 2719 2719 2719 2719 2719 2719 2719 2719 2719 2719 2719 2718 2718 2718 2718 2718 2718 2718 2718 2718 2718 2717 2717 2717 2717 2717 2717 2717 2717 2717 2716 2716 2716 2716 2715 2716 2716 2716 2716 2717 2717 2717 2717 2717 2718 2718 2718 2719 2719 2719 2720 2720 2721 2721 2721 2721 2721 2721 2721 2721 2720 2720 2719 2718 2716 2715 2713
2728 2726 2724 2723 2722 2721 2720 2719 2718 2718 2717 2717 2716 2716 2715 2715 2714 2714 2714 2714 2714 2714 2714 2714 2714 2714 2714 2714 2714 2714 2714 2714 2714 2714 2714 2714 2714 2714 2714 2714 2713 2713 2713 2713 2714 2714 2713 2713 2713 2713 2713 2713 2713 2713 2713 2713 2714 2714 2714 2715 2715 2715 2716 2716 2716 2717 2718 2718 2719 2719 2719 2720 2720 2720 2720 2720 2720 2719 2719 2718 2717 2716 2714 2713 2711